Lid_Strength_Index
-0 0 0 -0 -0 0 0 0 -1 -1 -1 -1 -2 -2 -2 -1 -0 -1 -1 -1 -1 0
-0 -0 -0 -1 -1 -0 -0 -0 -1 -1 -1 -1 -1 -2 -2 -0 -0 -1 -1 -1 -1 -0
0 -0 -0 -1 -0 -1 -1 -0 -0 -1 -1 -1 -1 -1 -1 -1 -1 -1 -0 -0 -0 -0
0 -0 -0 -0 -0 -0 -1 -1 -1 -0 -1 -1 -1 -1 -1 -1 -1 -0 -0 -1 -1 -1
-0 -0 0 0 -0 -1 -0 -1 -1 -1 -1 -1 -1 -1 -0 -0 -1 -0 0 -0 -0 -0
0 0 0 0 -0 -1 -0 -0 -1 -1 -0 -0 -0 -1 -0 -1 -0 -0 -0 -0 -0 -0
1 0 0 -0 -0 -0 -0 -0 -0 -0 -0 -0 -0 -0 -0 -0 -0 -0 -0 -0 -1 -0
0 -0 0 0 -0 -0 -0 -0 -0 -0 -0 -0 -0 -0 -0 -0 -0 0 0 -0 -1 -1
1 0 0 0 -0 -0 0 -0 -0 -0 0 0 -0 2 3 0 0 -0 0 0 -0 -0
1 1 1 0 1 0 0 0 0 0 0 0 -0 3 3 2 -0 0 0 0 0 0
3 1 1 1 1 1 1 1 1 0 0 0 0 4 5 3 -0 -0 -0 -0 -0 0
2 2 2 1 1 1 1 1 1 1 1 0 0 6 6 4 0 0 0 -0 -0 -0
3 2 1 1 1 1 0 1 1 1 0 2 0 5 8 5 0 1 1 0 -0 3
2 2 2 1 0 1 1 0 1 1 0 0 0 0 8 9 0 1 1 1 1 0